^^
Station Historical Data
 
Daily Summary for March 30, 2015 Units:  Metric    English   Both
« Previous Day
Next Day »
Daily Weekly Monthly Yearly Custom
  Current: High: Low: Average:
Temperature: 8.7 °C 8.9 °C 8.6 °C 8.8 °C
Dew Point: 7.6 °C 7.6 °C 7.0 °C 7.3 °C
Humidity: 93% 93% 88% 90%
Wind Speed: 5.6km/h 12.1km/h 5.0km/h 8.1km/h
Wind Gust: 17.7km/h 33.8km/h - -
WindWNW - - WSW
Pressure: 1004.3 hPa 1005.3 hPa 1002.3 hPa -
Precipitation: 1.5 mm      
Historical Graphs
 
 
Tabular Data for March 30, 2015
Time Temperature Dew Point Pressure Wind Wind Speed Wind Gust Humidity Rainfall Rate (Hourly) solar Conditions
00:05 8.7 °C 7.2 °C 1005.3 hPa WSW 5.6 km/h 20.9 km/h 90% 0.0 mm 0 W/m2
00:10 8.7 °C 7.3 °C 1005.3 hPa SE 6.4 km/h 22.5 km/h 91% 0.3 mm 0 W/m2
00:15 8.7 °C 7.3 °C 1005.3 hPa NW 6.0 km/h 16.1 km/h 91% 0.3 mm 0 W/m2
00:20 8.7 °C 7.3 °C 1005.3 hPa SSW 7.2 km/h 24.1 km/h 91% 0.3 mm 0 W/m2
00:30 8.8 °C 7.4 °C 1005.3 hPa South 5.6 km/h 17.7 km/h 91% 0.3 mm 0 W/m2
00:35 8.8 °C 7.4 °C 1005.0 hPa SSW 7.7 km/h 19.3 km/h 91% 0.3 mm 0 W/m2
00:40 8.8 °C 7.4 °C 1005.0 hPa SW 7.1 km/h 22.5 km/h 91% 0.3 mm 0 W/m2
00:45 8.8 °C 7.4 °C 1005.0 hPa SW 6.3 km/h 22.5 km/h 91% 0.3 mm 0 W/m2
00:50 8.8 °C 7.4 °C 1005.0 hPa WSW 6.0 km/h 19.3 km/h 91% 0.3 mm 0 W/m2
01:00 8.8 °C 7.4 °C 1005.0 hPa WNW 5.5 km/h 16.1 km/h 91% 0.3 mm 0 W/m2
01:05 8.8 °C 7.4 °C 1005.0 hPa SW 8.0 km/h 19.3 km/h 91% 0.3 mm 0 W/m2
01:10 8.8 °C 7.4 °C 1005.0 hPa SW 8.0 km/h 25.7 km/h 91% 0.0 mm 0 W/m2
01:15 8.8 °C 7.4 °C 1005.0 hPa WSW 7.2 km/h 20.9 km/h 91% 0.3 mm 0 W/m2
01:20 8.8 °C 7.4 °C 1004.6 hPa WSW 7.4 km/h 19.3 km/h 91% 0.3 mm 0 W/m2
01:25 8.8 °C 7.4 °C 1004.6 hPa SW 7.7 km/h 20.9 km/h 91% 0.3 mm 0 W/m2
01:30 8.8 °C 7.4 °C 1004.6 hPa SW 5.0 km/h 14.5 km/h 91% 0.3 mm 0 W/m2
01:35 8.8 °C 7.4 °C 1004.6 hPa North 8.0 km/h 20.9 km/h 91% 0.3 mm 0 W/m2
01:40 8.8 °C 7.4 °C 1004.6 hPa SW 9.2 km/h 24.1 km/h 91% 0.3 mm 0 W/m2
01:45 8.8 °C 7.4 °C 1004.6 hPa SSW 7.4 km/h 17.7 km/h 91% 0.3 mm 0 W/m2
01:50 8.8 °C 7.3 °C 1004.3 hPa WSW 7.6 km/h 22.5 km/h 90% 0.3 mm 0 W/m2
01:55 8.8 °C 7.3 °C 1004.3 hPa West 8.4 km/h 24.1 km/h 90% 0.3 mm 0 W/m2
02:00 8.8 °C 7.3 °C 1003.9 hPa WSW 8.8 km/h 20.9 km/h 90% 0.3 mm 0 W/m2
02:05 8.9 °C 7.3 °C 1003.9 hPa WSW 9.2 km/h 22.5 km/h 90% 0.3 mm 0 W/m2
02:10 8.8 °C 7.1 °C 1003.9 hPa SSW 10.3 km/h 17.7 km/h 89% 0.3 mm 0 W/m2
02:15 8.9 °C 7.2 °C 1003.9 hPa SSW 6.8 km/h 22.5 km/h 89% 0.0 mm 0 W/m2
02:20 8.9 °C 7.2 °C 1003.9 hPa SSW 6.4 km/h 14.5 km/h 89% 0.0 mm 0 W/m2
02:25 8.9 °C 7.2 °C 1003.9 hPa SW 6.9 km/h 24.1 km/h 89% 0.3 mm 0 W/m2
02:30 8.9 °C 7.2 °C 1004.3 hPa WSW 7.9 km/h 20.9 km/h 89% 0.3 mm 0 W/m2
02:35 8.9 °C 7.2 °C 1004.3 hPa WSW 6.1 km/h 16.1 km/h 89% 0.3 mm 0 W/m2
02:45 8.9 °C 7.2 °C 1003.9 hPa SSW 9.2 km/h 17.7 km/h 89% 0.3 mm 0 W/m2
02:50 8.9 °C 7.2 °C 1003.6 hPa West 7.1 km/h 17.7 km/h 89% 0.3 mm 0 W/m2
02:55 8.9 °C 7.2 °C 1003.6 hPa WSW 7.7 km/h 30.6 km/h 89% 0.3 mm 0 W/m2
03:00 8.9 °C 7.0 °C 1003.6 hPa WSW 8.8 km/h 22.5 km/h 88% 0.3 mm 0 W/m2
03:05 8.9 °C 7.0 °C 1003.6 hPa WSW 7.7 km/h 22.5 km/h 88% 0.3 mm 0 W/m2
03:10 8.9 °C 7.0 °C 1003.6 hPa South 8.4 km/h 25.7 km/h 88% 0.3 mm 0 W/m2
03:15 8.9 °C 7.0 °C 1003.6 hPa SW 10.1 km/h 29.0 km/h 88% 0.3 mm 0 W/m2
03:20 8.9 °C 7.0 °C 1003.6 hPa SW 9.2 km/h 24.1 km/h 88% 0.3 mm 0 W/m2
03:25 8.9 °C 7.0 °C 1003.3 hPa SSW 8.8 km/h 20.9 km/h 88% 0.0 mm 0 W/m2
03:30 8.9 °C 7.0 °C 1003.6 hPa WSW 9.7 km/h 20.9 km/h 88% 0.0 mm 0 W/m2
03:35 8.8 °C 7.1 °C 1003.3 hPa SW 8.4 km/h 27.4 km/h 89% 0.0 mm 0 W/m2
03:40 8.8 °C 7.1 °C 1002.9 hPa West 10.1 km/h 20.9 km/h 89% 0.0 mm 0 W/m2
03:45 8.8 °C 7.1 °C 1002.9 hPa WNW 6.8 km/h 24.1 km/h 89% 0.3 mm 0 W/m2
03:50 8.7 °C 7.0 °C 1002.9 hPa SW 7.9 km/h 19.3 km/h 89% 0.3 mm 0 W/m2
03:55 8.7 °C 7.0 °C 1002.9 hPa WSW 10.9 km/h 24.1 km/h 89% 0.3 mm 0 W/m2
04:00 8.7 °C 7.0 °C 1002.6 hPa WSW 8.8 km/h 19.3 km/h 89% 0.3 mm 0 W/m2
04:05 8.7 °C 7.0 °C 1002.6 hPa West 9.0 km/h 32.2 km/h 89% 0.3 mm 0 W/m2
04:10 8.7 °C 7.0 °C 1002.6 hPa WSW 5.0 km/h 17.7 km/h 89% 0.3 mm 0 W/m2
04:15 8.7 °C 7.0 °C 1002.6 hPa SW 7.7 km/h 22.5 km/h 89% 0.3 mm 0 W/m2
04:20 8.7 °C 7.0 °C 1002.6 hPa NW 6.6 km/h 19.3 km/h 89% 0.3 mm 0 W/m2
04:25 8.7 °C 7.2 °C 1002.3 hPa SSW 6.4 km/h 24.1 km/h 90% 0.3 mm 0 W/m2
04:30 8.7 °C 7.2 °C 1002.6 hPa WSW 9.2 km/h 22.5 km/h 90% 0.3 mm 0 W/m2
04:35 8.7 °C 7.2 °C 1002.6 hPa West 8.0 km/h 20.9 km/h 90% 0.3 mm 0 W/m2
04:40 8.7 °C 7.2 °C 1002.6 hPa SW 8.8 km/h 25.7 km/h 90% 0.3 mm 0 W/m2
04:45 8.7 °C 7.2 °C 1002.3 hPa West 6.9 km/h 33.8 km/h 90% 0.0 mm 0 W/m2
04:50 8.7 °C 7.2 °C 1002.3 hPa SW 8.8 km/h 24.1 km/h 90% 0.0 mm 0 W/m2
05:00 8.7 °C 7.2 °C 1002.6 hPa SSW 7.6 km/h 29.0 km/h 90% 0.3 mm 0 W/m2
05:05 8.7 °C 7.2 °C 1002.3 hPa WSW 7.2 km/h 20.9 km/h 90% 0.3 mm 0 W/m2
05:10 8.7 °C 7.2 °C 1002.3 hPa WSW 8.4 km/h 27.4 km/h 90% 0.3 mm 0 W/m2
05:15 8.7 °C 7.2 °C 1002.3 hPa SSE 7.7 km/h 17.7 km/h 90% 0.3 mm 0 W/m2
05:20 8.7 °C 7.2 °C 1002.3 hPa SSW 8.0 km/h 24.1 km/h 90% 0.3 mm 0 W/m2
05:25 8.7 °C 7.2 °C 1002.6 hPa SW 6.4 km/h 25.7 km/h 90% 0.3 mm 0 W/m2
05:30 8.7 °C 7.2 °C 1002.3 hPa WSW 10.0 km/h 27.4 km/h 90% 0.3 mm 0 W/m2
05:35 8.7 °C 7.2 °C 1002.6 hPa WSW 7.4 km/h 20.9 km/h 90% 0.3 mm 0 W/m2
05:40 8.7 °C 7.2 °C 1002.3 hPa SW 9.5 km/h 25.7 km/h 90% 0.3 mm 0 W/m2
05:45 8.7 °C 7.2 °C 1002.6 hPa West 6.8 km/h 16.1 km/h 90% 0.5 mm 0 W/m2
05:50 8.7 °C 7.2 °C 1002.6 hPa SW 8.7 km/h 22.5 km/h 90% 0.5 mm 0 W/m2
05:55 8.7 °C 7.2 °C 1002.6 hPa SW 8.5 km/h 27.4 km/h 90% 0.5 mm 0 W/m2
06:00 8.7 °C 7.2 °C 1002.6 hPa West 10.1 km/h 22.5 km/h 90% 0.3 mm 0 W/m2
06:05 8.7 °C 7.2 °C 1002.6 hPa NNW 6.8 km/h 17.7 km/h 90% 0.3 mm 0 W/m2
06:10 8.7 °C 7.3 °C 1002.6 hPa West 6.8 km/h 22.5 km/h 91% 0.3 mm 0 W/m2
06:15 8.6 °C 7.2 °C 1002.6 hPa NW 6.0 km/h 22.5 km/h 91% 0.3 mm 0 W/m2
06:20 8.6 °C 7.2 °C 1002.6 hPa WSW 7.7 km/h 19.3 km/h 91% 0.3 mm 0 W/m2
06:25 8.6 °C 7.2 °C 1002.6 hPa SSE 7.2 km/h 14.5 km/h 91% 0.3 mm 0 W/m2
06:30 8.6 °C 7.2 °C 1002.6 hPa West 8.8 km/h 22.5 km/h 91% 0.5 mm 0 W/m2
06:35 8.6 °C 7.2 °C 1002.6 hPa WSW 9.2 km/h 24.1 km/h 91% 0.5 mm 0 W/m2
06:40 8.6 °C 7.2 °C 1002.6 hPa WNW 9.7 km/h 20.9 km/h 91% 0.5 mm 0 W/m2
06:45 8.6 °C 7.2 °C 1002.6 hPa SW 6.9 km/h 17.7 km/h 91% 0.3 mm 0 W/m2
06:50 8.6 °C 7.2 °C 1002.6 hPa WSW 8.2 km/h 14.5 km/h 91% 0.3 mm 0 W/m2
07:00 8.7 °C 7.3 °C 1002.6 hPa West 7.6 km/h 16.1 km/h 91% 0.3 mm 0 W/m2
07:05 8.6 °C 7.4 °C 1002.6 hPa SW 10.1 km/h 24.1 km/h 92% 0.3 mm 0 W/m2
07:10 8.7 °C 7.5 °C 1002.6 hPa SW 6.9 km/h 19.3 km/h 92% 0.3 mm 0 W/m2
07:15 8.7 °C 7.5 °C 1002.6 hPa WSW 10.0 km/h 33.8 km/h 92% 0.3 mm 5 W/m2
07:20 8.7 °C 7.5 °C 1002.6 hPa West 12.1 km/h 25.7 km/h 92% 0.3 mm 9 W/m2
07:25 8.7 °C 7.3 °C 1002.3 hPa WSW 11.3 km/h 29.0 km/h 91% 0.3 mm 14 W/m2
07:30 8.7 °C 7.3 °C 1002.3 hPa WNW 10.6 km/h 27.4 km/h 91% 0.0 mm 16 W/m2
07:35 8.7 °C 7.3 °C 1002.6 hPa WSW 9.3 km/h 25.7 km/h 91% 0.3 mm 14 W/m2
07:40 8.7 °C 7.3 °C 1002.6 hPa WSW 9.2 km/h 27.4 km/h 91% 0.3 mm 12 W/m2
07:45 8.7 °C 7.3 °C 1002.6 hPa SW 8.5 km/h 19.3 km/h 91% 0.3 mm 16 W/m2
07:50 8.7 °C 7.3 °C 1002.9 hPa West 10.5 km/h 22.5 km/h 91% 0.3 mm 21 W/m2
07:55 8.8 °C 7.4 °C 1002.9 hPa WSW 8.8 km/h 19.3 km/h 91% 0.3 mm 39 W/m2
08:05 8.8 °C 7.4 °C 1002.9 hPa WSW 9.0 km/h 19.3 km/h 91% 0.3 mm 39 W/m2
08:10 8.8 °C 7.4 °C 1002.9 hPa SSW 8.5 km/h 24.1 km/h 91% 0.3 mm 46 W/m2
08:15 8.8 °C 7.4 °C 1003.3 hPa West 10.3 km/h 27.4 km/h 91% 0.3 mm 35 W/m2
08:20 8.8 °C 7.4 °C 1003.3 hPa SW 10.0 km/h 22.5 km/h 91% 0.3 mm 37 W/m2
08:25 8.8 °C 7.4 °C 1003.3 hPa WSW 6.0 km/h 16.1 km/h 91% 0.3 mm 39 W/m2
08:30 8.8 °C 7.6 °C 1003.6 hPa SSW 8.4 km/h 20.9 km/h 92% 0.3 mm 42 W/m2
08:35 8.8 °C 7.6 °C 1003.6 hPa SW 9.0 km/h 20.9 km/h 92% 0.0 mm 39 W/m2
08:45 8.7 °C 7.5 °C 1003.9 hPa West 9.3 km/h 24.1 km/h 92% 0.0 mm 35 W/m2
08:50 8.7 °C 7.6 °C 1004.3 hPa WNW 7.7 km/h 19.3 km/h 93% 0.0 mm 16 W/m2
08:55 8.7 °C 7.6 °C 1004.3 hPa WNW 5.6 km/h 17.7 km/h 93% 0.0 mm 16 W/m2
Tägerwilen, Thurgau, Switzerland
Compliments of Weather Underground